Location: Caltech
(34.1382°N, 118.1253°W)
Time: 03:24:27
(UTC-07:00)

AO-7 - Visible Passes

Search period start: 23 March 2017 00:00
Search period end: 02 April 2017 00:00
Orbit: 1440 x 1459 km, 101.6° (Epoch: 21 March)

Date Brightness Start Highest point End Pass type
(mag) Time Alt. Az. Time Alt. Az. Time Alt. Az.
23 Mar ? 04:05:52 10° NNE 04:13:55 53° ESE 04:19:51 19° S visible
23 Mar ? 05:59:18 10° N 06:06:15 31° WNW 06:13:11 10° WSW visible
24 Mar ? 03:07:52 10° NE 03:13:32 20° E 03:18:58 10° SE visible
24 Mar ? 04:58:36 10° NNE 05:06:51 74° WNW 05:13:54 15° SSW visible
25 Mar ? 03:58:59 10° NNE 04:06:56 48° ESE 04:13:02 18° SSE visible
25 Mar ? 05:52:11 10° N 05:59:21 34° WNW 06:06:33 10° WSW visible
26 Mar ? 03:01:22 10° NE 03:06:28 17° E 03:11:32 10° SE visible
26 Mar ? 04:51:36 10° NNE 04:59:54 81° WNW 05:07:06 15° SSW visible
27 Mar ? 03:52:08 10° NNE 03:59:55 43° E 04:06:13 16° SSE visible
27 Mar ? 05:45:04 10° N 05:52:29 38° WNW 05:59:52 10° SW visible
28 Mar ? 02:55:01 10° ENE 02:59:24 15° E 03:03:45 10° SE visible
28 Mar ? 04:44:37 10° NNE 04:52:57 88° WNW 05:00:17 14° SSW visible
29 Mar ? 03:45:19 10° NNE 03:52:54 38° E 03:59:24 14° SSE visible
29 Mar ? 05:37:59 10° N 05:45:35 42° WNW 05:53:10 10° SW visible
30 Mar ? 02:48:53 10° ENE 02:52:19 13° E 02:55:45 10° ESE visible
30 Mar ? 04:37:39 10° NNE 04:45:59 84° ESE 04:53:28 14° SSW visible
31 Mar ? 03:38:31 10° NE 03:45:53 34° E 03:52:34 12° SSE visible
31 Mar ? 05:30:54 10° N 05:38:40 46° WNW 05:46:26 10° SW visible
01 Apr ? 02:43:15 10° ENE 02:45:14 11° E 02:47:13 10° ESE visible
01 Apr ? 04:30:42 10° NNE 04:39:01 77° ESE 04:46:38 13° SSW visible
